Theta_e
318 317 317 323 328 337 339 338 331 335 337 338 340 339 339 338 338 336 328 321 320 318 320 322 318 320 322 323 323 326 323 327
318 318 317 320 328 333 338 338 338 338 339 340 340 339 339 339 338 337 333 325 322 320 319 319 318 319 318 318 318 319 328 321
320 319 318 318 327 333 336 338 338 336 337 337 337 337 335 337 336 337 328 326 324 323 320 320 320 321 319 320 318 321 322 328
320 319 319 319 322 330 337 338 337 334 330 334 336 336 335 336 335 334 332 329 329 324 322 321 325 319 324 318 318 318 327 327
320 320 319 317 318 324 334 337 339 338 336 331 332 334 334 334 334 331 331 326 324 324 323 322 322 323 320 324 320 320 320 328
319 321 322 322 320 317 323 335 337 337 336 336 335 334 334 333 334 333 327 326 322 321 321 321 322 322 324 321 322 320 327 329
315 317 320 324 327 325 316 326 334 336 336 335 336 337 336 335 333 331 331 333 333 325 323 323 323 324 322 322 322 321 321 326
309 310 312 314 317 323 329 326 324 335 337 336 336 337 337 336 336 335 335 334 333 332 329 326 324 322 322 323 324 323 323 323
306 306 306 306 308 315 325 325 326 328 334 338 337 337 337 336 336 336 336 337 337 336 335 336 336 334 328 325 324 324 326 325
308 307 307 306 304 305 308 316 326 330 328 333 336 336 336 337 337 338 337 338 338 339 337 336 338 338 336 331 329 326 328 330
306 306 306 307 306 305 304 304 305 308 315 324 330 333 335 336 336 336 336 338 339 338 337 337 338 338 337 335 334 334 335 337
307 305 305 304 305 305 305 306 305 304 304 306 310 314 319 324 333 335 336 337 337 338 339 338 339 339 339 338 337 338 338 332
305 305 305 304 302 303 303 304 305 305 304 304 304 304 304 305 307 313 322 331 334 337 339 339 339 338 339 339 338 335 331 331
304 303 304 304 304 302 302 302 303 303 304 305 304 304 304 304 304 304 304 306 311 315 326 331 332 332 332 331 331 331 331 331
304 304 304 303 304 303 302 301 301 303 304 304 303 304 304 304 304 304 304 304 304 304 305 309 308 317 320 327 331 332 333 334
303 303 304 304 304 303 303 302 300 301 301 302 302 302 302 303 304 304 304 304 304 304 304 304 304 304 305 307 309 313 321 329
303 303 303 304 304 303 302 302 302 301 299 300 300 301 301 301 302 303 303 304 304 304 304 304 304 304 303 303 303 304 306 307
303 303 303 303 303 303 302 302 301 301 300 300 300 299 300 300 300 300 301 302 302 303 303 304 304 304 304 303 303 304 303 304
303 303 302 302 302 301 301 300 300 300 300 300 300 299 299 299 299 300 300 300 301 301 302 303 303 303 304 304 304 304 304 304
Wind_Speed
19 17 21 24 23 26 31 34 42 41 38 37 31 30 30 29 29 29 34 37 37 36 32 30 31 28 26 25 24 21 22 17
23 18 18 21 24 25 29 32 35 36 35 35 34 34 32 31 31 31 34 37 38 39 36 33 34 31 30 30 28 26 19 22
21 22 17 15 22 25 28 31 33 38 35 34 34 34 36 35 33 33 39 39 39 40 39 37 35 32 32 31 30 26 24 18
15 16 18 17 19 25 27 29 34 36 39 35 30 28 30 30 34 36 38 40 38 40 40 39 35 36 32 35 34 32 24 22
11 10 10 11 14 18 23 26 29 33 37 40 39 35 35 37 35 35 35 40 42 42 42 41 41 38 36 32 33 33 30 23
14 13 9 5 7 10 18 23 25 26 30 37 39 36 34 27 26 29 37 39 42 43 44 43 43 43 38 38 35 35 28 26
21 18 17 15 11 4 12 16 21 23 25 29 34 39 35 31 32 37 34 28 30 39 40 41 41 40 42 42 40 39 38 30
31 31 30 26 23 15 7 2 11 15 20 23 26 28 28 31 27 24 22 25 30 36 39 42 42 44 42 42 41 41 39 36
37 36 37 39 39 32 21 9 10 7 7 16 20 21 22 21 22 23 23 22 22 21 27 26 27 34 41 45 45 42 39 38
34 37 39 41 45 46 45 36 24 10 5 11 13 15 16 18 18 19 22 23 23 22 22 23 22 26 30 34 37 41 39 36
32 34 36 39 41 42 43 44 41 36 30 20 7 8 14 18 20 22 21 21 22 23 23 23 23 26 28 30 30 30 30 29
30 31 29 35 38 37 36 37 36 36 33 31 29 24 21 13 6 15 24 26 25 24 24 23 24 24 26 28 27 28 28 26
26 25 29 34 35 33 33 34 31 28 28 27 26 26 24 24 23 18 9 5 12 21 28 30 31 30 26 30 29 30 27 27
16 24 24 27 31 34 32 30 28 26 24 20 20 20 22 20 19 16 16 16 12 10 3 7 13 16 21 25 26 32 33 34
15 16 18 18 19 23 26 28 28 27 25 24 21 18 17 16 15 14 15 13 11 11 8 7 9 8 9 11 19 26 30 31
16 17 18 19 20 20 20 23 24 23 24 23 23 21 18 16 14 13 11 11 11 9 8 7 6 6 7 9 10 13 18 23
17 16 16 17 18 18 19 20 22 24 23 23 21 24 23 20 19 16 15 14 13 14 14 13 11 10 9 10 11 12 12 12
16 16 16 16 17 17 18 20 20 21 20 20 22 21 21 22 23 23 23 22 21 20 18 18 18 18 17 15 15 16 16 16
17 18 18 18 17 18 21 22 22 20 18 17 19 21 22 22 22 24 24 26 27 26 26 24 24 23 21 21 21 21 21 20
Wind_Direction
257 249 244 236 231 221 217 215 217 213 211 211 214 215 220 218 221 222 228 228 227 228 225 225 228 226 227 227 228 232 234 238
257 256 250 236 227 222 217 214 213 210 209 209 212 215 220 222 223 225 229 232 231 232 229 232 232 229 230 236 236 234 238 242
260 249 248 235 230 225 219 215 212 214 213 215 218 221 225 228 229 229 233 235 233 231 233 233 235 231 231 231 235 234 240 233
284 267 252 246 237 228 223 219 222 229 225 217 220 221 227 228 231 233 234 233 233 235 235 232 234 236 232 236 237 238 230 235
323 311 278 259 249 233 230 224 220 228 231 230 223 222 224 227 231 234 235 238 237 237 236 236 235 238 237 235 236 237 235 231
10 7 353 318 265 252 227 226 223 220 223 229 234 231 231 230 233 235 240 242 244 241 240 239 238 238 240 239 240 241 237 236
39 35 36 31 21 308 240 217 228 227 227 230 232 241 236 234 236 246 240 239 240 242 239 240 241 241 242 245 245 245 247 242
47 46 42 39 37 39 41 273 223 223 233 234 238 238 238 238 238 243 242 246 251 251 245 242 244 247 247 246 246 248 247 246
44 46 45 44 47 54 63 91 122 181 217 237 244 244 241 246 247 241 243 247 244 242 249 255 258 253 252 251 249 248 248 250
31 35 41 41 47 55 57 66 74 93 166 206 224 226 231 238 245 247 247 245 245 240 238 255 258 253 247 244 242 246 243 244
23 29 32 37 42 48 55 58 58 60 65 75 102 229 241 244 246 247 244 246 249 249 256 257 254 244 243 239 234 233 232 232
14 18 21 31 33 36 38 42 47 52 53 59 60 62 63 68 217 236 245 249 248 242 246 248 244 243 239 235 233 229 221 232
10 8 15 11 24 29 28 31 33 37 42 47 51 56 54 49 52 50 55 163 213 227 232 240 229 228 225 214 210 220 233 238
14 20 10 16 6 9 18 19 23 21 25 28 35 37 40 37 45 41 43 37 30 26 22 211 235 246 246 236 247 252 255 254
16 8 7 12 14 1 1 5 6 4 4 5 2 4 6 11 13 13 28 24 24 32 24 25 360 322 292 257 246 244 249 250
3 357 356 352 360 5 1 357 359 351 347 346 342 343 343 337 339 339 340 340 351 341 349 3 355 339 312 314 298 284 266 252
346 346 347 347 350 346 349 350 348 344 339 331 327 323 323 325 320 318 321 314 310 312 312 308 302 299 301 298 297 291 288 282
345 343 341 341 338 337 335 335 334 331 330 327 323 318 311 310 312 313 310 306 304 298 296 297 296 294 294 291 289 289 287 286
339 336 334 332 329 324 323 321 320 320 322 323 319 319 315 308 301 300 299 299 298 298 293 287 282 282 285 285 283 283 282 283